| time (UTC) | temp F | wind direction | speed MPH | gust MPH | rain 1hr in | rain 24hr in | rain mn in | humidity % | barometer mb |
| 20260901211401 | 51 | 326 | 0.0 | 0.0 | 0.00 | 0.00 | 0.00 | 81 | 1022.7 |
| 20260901210905 | 52 | 326 | 0.0 | 0.0 | 0.00 | 0.00 | 0.00 | 82 | 1022.6 |
| 20260901210403 | 52 | 326 | 0.0 | 0.0 | 0.00 | 0.00 | 0.00 | 81 | 1022.7 |
| 20260901205909 | 52 | 326 | 0.0 | 0.0 | 0.00 | 0.00 | 0.00 | 81 | 1022.6 |
| 20260901205358 | 52 | 326 | 0.0 | 0.0 | 0.00 | 0.00 | 0.00 | 81 | 1022.6 |
| 20260901204856 | 53 | 326 | 0.0 | 0.0 | 0.00 | 0.00 | 0.00 | 80 | 1022.6 |
| 20260901204353 | 53 | 326 | 0.0 | 0.0 | 0.00 | 0.00 | 0.00 | 80 | 1022.6 |
| 20260901203852 | 53 | 326 | 0.0 | 0.0 | 0.00 | 0.00 | 0.00 | 80 | 1022.6 |
| 20260901203349 | 53 | 326 | 0.0 | 0.0 | 0.00 | 0.00 | 0.00 | 80 | 1022.5 |
| 20260901202847 | 53 | 326 | 0.0 | 0.0 | 0.00 | 0.00 | 0.00 | 79 | 1022.5 |
| 20260901202347 | 53 | 326 | 0.0 | 0.0 | 0.00 | 0.00 | 0.00 | 78 | 1022.5 |
| 20260901201846 | 54 | 326 | 0.0 | 0.0 | 0.00 | 0.00 | 0.00 | 78 | 1022.5 |
| 20260901201346 | 54 | 326 | 0.0 | 0.0 | 0.00 | 0.00 | 0.00 | 78 | 1022.4 |
| 20260901200844 | 54 | 326 | 0.0 | 0.0 | 0.00 | 0.00 | 0.00 | 78 | 1022.4 |
| 20260901200344 | 54 | 326 | 0.0 | 0.0 | 0.00 | 0.00 | 0.00 | 77 | 1022.4 |
| 20260901195842 | 55 | 326 | 0.0 | 0.0 | 0.00 | 0.00 | 0.00 | 77 | 1022.4 |
| 20260901195336 | 55 | 326 | 0.0 | 0.0 | 0.00 | 0.00 | 0.00 | 77 | 1022.4 |
| 20260901194834 | 55 | 326 | 0.0 | 0.0 | 0.00 | 0.00 | 0.00 | 76 | 1022.4 |
| 20260901194336 | 56 | 326 | 0.0 | 0.0 | 0.00 | 0.00 | 0.00 | 76 | 1022.3 |
| 20260901193834 | 56 | 326 | 0.0 | 0.0 | 0.00 | 0.00 | 0.00 | 75 | 1022.3 |
| 20260901193334 | 56 | 326 | 0.0 | 0.0 | 0.00 | 0.00 | 0.00 | 75 | 1022.3 |
| 20260901192831 | 57 | 326 | 0.0 | 0.0 | 0.00 | 0.00 | 0.00 | 74 | 1022.3 |
| 20260901192331 | 57 | 326 | 0.0 | 0.0 | 0.00 | 0.00 | 0.00 | 74 | 1022.3 |
| 20260901191831 | 57 | 326 | 0.0 | 0.0 | 0.00 | 0.00 | 0.00 | 74 | 1022.2 |
| 20260901191330 | 58 | 326 | 0.0 | 0.0 | 0.00 | 0.00 | 0.00 | 73 | 1022.2 |
| 20260901190823 | 58 | 326 | 0.0 | 0.0 | 0.00 | 0.00 | 0.00 | 73 | 1022.2 |
| 20260901190320 | 59 | 326 | 0.0 | 0.0 | 0.00 | 0.00 | 0.00 | 73 | 1022.1 |
| 20260901185822 | 59 | 326 | 0.0 | 0.0 | 0.00 | 0.00 | 0.00 | 72 | 1022.1 |
| 20260901185320 | 59 | 326 | 0.0 | 0.0 | 0.00 | 0.00 | 0.00 | 72 | 1022.0 |
| 20260901184820 | 60 | 326 | 0.0 | 0.0 | 0.00 | 0.00 | 0.00 | 72 | 1022.0 |
| 20260901184317 | 60 | 326 | 0.0 | 0.0 | 0.00 | 0.00 | 0.00 | 70 | 1021.8 |
| 20260901183817 | 61 | 326 | 0.0 | 0.0 | 0.00 | 0.00 | 0.00 | 69 | 1021.8 |
| 20260901183313 | 62 | 326 | 0.0 | 0.0 | 0.00 | 0.00 | 0.00 | 68 | 1021.7 |
| 20260901182812 | 62 | 326 | 0.0 | 0.0 | 0.00 | 0.00 | 0.00 | 67 | 1021.6 |
| 20260901182312 | 63 | 326 | 0.0 | 0.0 | 0.00 | 0.00 | 0.00 | 66 | 1021.6 |
| 20260901181809 | 64 | 326 | 0.0 | 0.0 | 0.00 | 0.00 | 0.00 | 64 | 1021.5 |
| 20260901181308 | 64 | 326 | 0.0 | 0.0 | 0.00 | 0.00 | 0.00 | 63 | 1021.5 |
| 20260901180806 | 65 | 326 | 0.0 | 0.0 | 0.00 | 0.00 | 0.00 | 61 | 1021.4 |
| 20260901180304 | 66 | 326 | 0.0 | 0.0 | 0.00 | 0.00 | 0.00 | 59 | 1021.4 |
| 20260901175802 | 66 | 326 | 0.0 | 0.0 | 0.00 | 0.00 | 0.00 | 58 | 1021.3 |
| 20260901175305 | 67 | 326 | 0.0 | 0.0 | 0.00 | 0.00 | 0.00 | 60 | 1021.3 |
| 20260901174802 | 67 | 326 | 0.0 | 2.0 | 0.00 | 0.00 | 0.00 | 59 | 1021.2 |
| 20260901174303 | 68 | 326 | 1.0 | 3.0 | 0.00 | 0.00 | 0.00 | 55 | 1021.2 |
| 20260901173801 | 68 | 326 | 2.0 | 4.0 | 0.00 | 0.00 | 0.00 | 53 | 1021.2 |
| 20260901173259 | 68 | 326 | 3.0 | 5.0 | 0.00 | 0.00 | 0.00 | 52 | 1021.2 |
| 20260901172800 | 69 | 321 | 3.0 | 8.0 | 0.00 | 0.00 | 0.00 | 52 | 1021.2 |
| 20260901172254 | 69 | 315 | 2.0 | 8.0 | 0.00 | 0.00 | 0.00 | 51 | 1021.2 |
| 20260901171745 | 69 | 306 | 3.0 | 8.0 | 0.00 | 0.00 | 0.00 | 51 | 1021.2 |
| 20260901171234 | 69 | 323 | 3.0 | 8.0 | 0.00 | 0.00 | 0.00 | 50 | 1021.1 |
| 20260901170733 | 70 | 310 | 3.0 | 7.0 | 0.00 | 0.00 | 0.00 | 49 | 1021.2 |
| 20260901170230 | 70 | 321 | 4.0 | 7.0 | 0.00 | 0.00 | 0.00 | 49 | 1021.2 |
| 20260901165730 | 70 | 321 | 4.0 | 10.0 | 0.00 | 0.00 | 0.00 | 49 | 1021.2 |
| 20260901165231 | 71 | 325 | 4.0 | 10.0 | 0.00 | 0.00 | 0.00 | 48 | 1021.1 |
| 20260901164731 | 71 | 314 | 3.0 | 9.0 | 0.00 | 0.00 | 0.00 | 48 | 1021.1 |
| 20260901164234 | 71 | 300 | 3.0 | 7.0 | 0.00 | 0.00 | 0.00 | 48 | 1021.1 |
| 20260901163731 | 71 | 296 | 3.0 | 7.0 | 0.00 | 0.00 | 0.00 | 48 | 1021.1 |
| 20260901163231 | 72 | 311 | 3.0 | 6.0 | 0.00 | 0.00 | 0.00 | 48 | 1021.1 |
| 20260901162731 | 72 | 290 | 3.0 | 7.0 | 0.00 | 0.00 | 0.00 | 48 | 1021.1 |
| 20260901162231 | 72 | 298 | 4.0 | 9.0 | 0.00 | 0.00 | 0.00 | 47 | 1021.2 |
| 20260901161731 | 72 | 317 | 4.0 | 9.0 | 0.00 | 0.00 | 0.00 | 47 | 1021.1 |
| 20260901161232 | 72 | 297 | 5.0 | 11.0 | 0.00 | 0.00 | 0.00 | 47 | 1021.2 |
| 20260901160731 | 72 | 302 | 4.0 | 11.0 | 0.00 | 0.00 | 0.00 | 47 | 1021.2 |
| 20260901160232 | 72 | 281 | 4.0 | 9.0 | 0.00 | 0.00 | 0.00 | 47 | 1021.2 |
| 20260901155731 | 72 | 332 | 5.0 | 9.0 | 0.00 | 0.00 | 0.00 | 46 | 1021.1 |
| 20260901155228 | 72 | 323 | 4.0 | 10.0 | 0.00 | 0.00 | 0.00 | 47 | 1021.2 |
| 20260901154720 | 72 | 310 | 3.0 | 10.0 | 0.00 | 0.00 | 0.00 | 48 | 1021.2 |
| 20260901154208 | 71 | 329 | 3.0 | 9.0 | 0.00 | 0.00 | 0.00 | 48 | 1021.1 |
| 20260901153708 | 71 | 317 | 4.0 | 9.0 | 0.00 | 0.00 | 0.00 | 49 | 1021.2 |
| 20260901153208 | 71 | 338 | 5.0 | 9.0 | 0.00 | 0.00 | 0.00 | 48 | 1021.2 |
| 20260901152708 | 72 | 329 | 6.0 | 10.0 | 0.00 | 0.00 | 0.00 | 48 | 1021.2 |
| 20260901152209 | 71 | 340 | 4.0 | 10.0 | 0.00 | 0.00 | 0.00 | 48 | 1021.2 |
| 20260901151708 | 71 | 333 | 5.0 | 11.0 | 0.00 | 0.00 | 0.00 | 48 | 1021.2 |
| 20260901151208 | 71 | 317 | 6.0 | 11.0 | 0.00 | 0.00 | 0.00 | 48 | 1021.2 |
| 20260901150709 | 71 | 287 | 5.0 | 9.0 | 0.00 | 0.00 | 0.00 | 49 | 1021.3 |
| 20260901150209 | 72 | 299 | 5.0 | 9.0 | 0.00 | 0.00 | 0.00 | 47 | 1021.2 |
| 20260901145708 | 72 | 313 | 5.0 | 9.0 | 0.00 | 0.00 | 0.00 | 47 | 1021.3 |
| 20260901145209 | 72 | 325 | 5.0 | 11.0 | 0.00 | 0.00 | 0.00 | 47 | 1021.3 |
| 20260901144707 | 72 | 312 | 6.0 | 11.0 | 0.00 | 0.00 | 0.00 | 47 | 1021.3 |
| 20260901144208 | 72 | 301 | 7.0 | 10.0 | 0.00 | 0.00 | 0.00 | 48 | 1021.2 |
| 20260901143706 | 72 | 355 | 7.0 | 10.0 | 0.00 | 0.00 | 0.00 | 47 | 1021.3 |
| 20260901143205 | 72 | 329 | 7.0 | 13.0 | 0.00 | 0.00 | 0.00 | 47 | 1021.3 |
| 20260901142704 | 72 | 0 | 7.0 | 13.0 | 0.00 | 0.00 | 0.00 | 48 | 1021.3 |
| 20260901142211 | 72 | 323 | 5.0 | 12.0 | 0.00 | 0.00 | 0.00 | 47 | 1021.3 |
| 20260901141702 | 73 | 299 | 6.0 | 11.0 | 0.00 | 0.00 | 0.00 | 48 | 1021.3 |
| 20260901141203 | 73 | 321 | 5.0 | 11.0 | 0.00 | 0.00 | 0.00 | 47 | 1021.3 |
| 20260901140702 | 73 | 313 | 5.0 | 11.0 | 0.00 | 0.00 | 0.00 | 47 | 1021.3 |
| 20260901140203 | 73 | 311 | 5.0 | 11.0 | 0.00 | 0.00 | 0.00 | 47 | 1021.4 |
| 20260901135703 | 73 | 315 | 3.0 | 7.0 | 0.00 | 0.00 | 0.00 | 46 | 1021.3 |
| 20260901135204 | 73 | 340 | 4.0 | 7.0 | 0.00 | 0.00 | 0.00 | 47 | 1021.3 |
| 20260901134704 | 74 | 323 | 5.0 | 10.0 | 0.00 | 0.00 | 0.00 | 45 | 1021.3 |
| 20260901134202 | 74 | 304 | 7.0 | 11.0 | 0.00 | 0.00 | 0.00 | 45 | 1021.4 |
| 20260901133703 | 75 | 296 | 8.0 | 16.0 | 0.00 | 0.00 | 0.00 | 45 | 1021.4 |
| 20260901133203 | 75 | 297 | 8.0 | 16.0 | 0.00 | 0.00 | 0.00 | 44 | 1021.4 |
| 20260901132702 | 75 | 295 | 6.0 | 15.0 | 0.00 | 0.00 | 0.00 | 46 | 1021.3 |
| 20260901132202 | 74 | 293 | 6.0 | 13.0 | 0.00 | 0.00 | 0.00 | 46 | 1021.4 |
| 20260901131702 | 74 | 323 | 6.0 | 13.0 | 0.00 | 0.00 | 0.00 | 46 | 1021.4 |
| 20260901131203 | 74 | 266 | 7.0 | 14.0 | 0.00 | 0.00 | 0.00 | 46 | 1021.5 |
| 20260901130703 | 75 | 306 | 7.0 | 14.0 | 0.00 | 0.00 | 0.00 | 45 | 1021.5 |
| 20260901130205 | 75 | 331 | 7.0 | 18.0 | 0.00 | 0.00 | 0.00 | 45 | 1021.4 |
| 20260901125704 | 75 | 335 | 9.0 | 18.0 | 0.00 | 0.00 | 0.00 | 45 | 1021.5 |
| 20260901125203 | 75 | 329 | 8.0 | 18.0 | 0.00 | 0.00 | 0.00 | 46 | 1021.5 |
| 20260901124704 | 74 | 330 | 6.0 | 13.0 | 0.00 | 0.00 | 0.00 | 46 | 1021.4 |
| 20260901124202 | 74 | 270 | 7.0 | 15.0 | 0.00 | 0.00 | 0.00 | 46 | 1021.5 |
| 20260901123703 | 74 | 309 | 8.0 | 15.0 | 0.00 | 0.00 | 0.00 | 46 | 1021.4 |
| 20260901123202 | 74 | 316 | 7.0 | 13.0 | 0.00 | 0.00 | 0.00 | 46 | 1021.5 |
| 20260901122702 | 74 | 315 | 9.0 | 18.0 | 0.00 | 0.00 | 0.00 | 47 | 1021.5 |
| 20260901122202 | 74 | 271 | 12.0 | 21.0 | 0.00 | 0.00 | 0.00 | 47 | 1021.6 |
| 20260901121702 | 74 | 308 | 11.0 | 21.0 | 0.00 | 0.00 | 0.00 | 46 | 1021.6 |
| 20260901121202 | 75 | 327 | 10.0 | 16.0 | 0.00 | 0.00 | 0.00 | 47 | 1021.5 |
| 20260901120702 | 74 | 331 | 9.0 | 16.0 | 0.00 | 0.00 | 0.00 | 46 | 1021.6 |
| 20260901120203 | 74 | 315 | 7.0 | 16.0 | 0.00 | 0.00 | 0.00 | 45 | 1021.6 |
| 20260901115703 | 75 | 285 | 8.0 | 16.0 | 0.00 | 0.00 | 0.00 | 45 | 1021.6 |
| 20260901115202 | 76 | 320 | 8.0 | 15.0 | 0.00 | 0.00 | 0.00 | 44 | 1021.5 |
| 20260901114703 | 76 | 298 | 8.0 | 15.0 | 0.00 | 0.00 | 0.00 | 46 | 1021.5 |
| 20260901114203 | 76 | 310 | 7.0 | 16.0 | 0.00 | 0.00 | 0.00 | 44 | 1021.5 |
| 20260901113711 | 75 | 238 | 7.0 | 17.0 | 0.00 | 0.00 | 0.00 | 44 | 1021.6 |
| 20260901113159 | 74 | 273 | 9.0 | 17.0 | 0.00 | 0.00 | 0.00 | 47 | 1021.7 |
| 20260901112652 | 74 | 279 | 9.0 | 18.0 | 0.00 | 0.00 | 0.00 | 46 | 1021.7 |
| 20260901112146 | 74 | 336 | 9.0 | 18.0 | 0.00 | 0.00 | 0.00 | 45 | 1021.8 |
| 20260901111637 | 74 | 266 | 9.0 | 16.0 | 0.00 | 0.00 | 0.00 | 47 | 1021.8 |
| 20260901111131 | 74 | 285 | 8.0 | 16.0 | 0.00 | 0.00 | 0.00 | 45 | 1021.7 |
| 20260901110631 | 74 | 300 | 8.0 | 15.0 | 0.00 | 0.00 | 0.00 | 46 | 1021.6 |
| 20260901110130 | 74 | 306 | 7.0 | 14.0 | 0.00 | 0.00 | 0.00 | 46 | 1021.7 |
| 20260901105630 | 73 | 333 | 8.0 | 17.0 | 0.00 | 0.00 | 0.00 | 48 | 1021.7 |
| 20260901105130 | 73 | 276 | 10.0 | 20.0 | 0.00 | 0.00 | 0.00 | 48 | 1021.6 |
| 20260901104630 | 74 | 317 | 9.0 | 20.0 | 0.00 | 0.00 | 0.00 | 47 | 1021.6 |
| 20260901104130 | 73 | 319 | 8.0 | 15.0 | 0.00 | 0.00 | 0.00 | 49 | 1021.7 |
| 20260901103630 | 73 | 323 | 7.0 | 15.0 | 0.00 | 0.00 | 0.00 | 53 | 1021.6 |
| 20260901103131 | 72 | 320 | 7.0 | 15.0 | 0.00 | 0.00 | 0.00 | 52 | 1021.7 |
| 20260901102632 | 72 | 329 | 8.0 | 15.0 | 0.00 | 0.00 | 0.00 | 50 | 1021.7 |
| 20260901102131 | 72 | 303 | 8.0 | 14.0 | 0.00 | 0.00 | 0.00 | 51 | 1021.6 |
| 20260901101631 | 72 | 343 | 7.0 | 13.0 | 0.00 | 0.00 | 0.00 | 51 | 1021.7 |
| 20260901101130 | 71 | 290 | 8.0 | 18.0 | 0.00 | 0.00 | 0.00 | 54 | 1021.7 |
| 20260901100631 | 72 | 287 | 8.0 | 18.0 | 0.00 | 0.00 | 0.00 | 53 | 1021.8 |
| 20260901100130 | 72 | 298 | 7.0 | 15.0 | 0.00 | 0.00 | 0.00 | 51 | 1021.8 |
| 20260901095625 | 72 | 314 | 8.0 | 16.0 | 0.00 | 0.00 | 0.00 | 52 | 1021.7 |
| 20260901095124 | 73 | 329 | 8.0 | 16.0 | 0.00 | 0.00 | 0.00 | 49 | 1021.7 |
| 20260901094617 | 73 | 270 | 6.0 | 16.0 | 0.00 | 0.00 | 0.00 | 49 | 1021.6 |
| 20260901094109 | 73 | 313 | 7.0 | 16.0 | 0.00 | 0.00 | 0.00 | 50 | 1021.6 |
| 20260901093609 | 72 | 282 | 10.0 | 20.0 | 0.00 | 0.00 | 0.00 | 50 | 1021.6 |
| 20260901093102 | 72 | 298 | 10.0 | 20.0 | 0.00 | 0.00 | 0.00 | 51 | 1021.7 |
| 20260901092601 | 73 | 322 | 9.0 | 16.0 | 0.00 | 0.00 | 0.00 | 50 | 1021.7 |
| 20260901092103 | 73 | 329 | 7.0 | 16.0 | 0.00 | 0.00 | 0.00 | 51 | 1021.7 |
| 20260901091603 | 73 | 327 | 7.0 | 16.0 | 0.00 | 0.00 | 0.00 | 52 | 1021.7 |
| 20260901091102 | 72 | 300 | 8.0 | 17.0 | 0.00 | 0.00 | 0.00 | 51 | 1021.7 |
| 20260901090559 | 71 | 297 | 8.0 | 18.0 | 0.00 | 0.00 | 0.00 | 52 | 1021.7 |
| 20260901090108 | 71 | 307 | 8.0 | 18.0 | 0.00 | 0.00 | 0.00 | 54 | 1021.7 |
| 20260901085558 | 71 | 286 | 8.0 | 14.0 | 0.00 | 0.00 | 0.00 | 54 | 1021.7 |
| 20260901085059 | 71 | 296 | 8.0 | 15.0 | 0.00 | 0.00 | 0.00 | 54 | 1021.8 |
| 20260901084559 | 71 | 272 | 8.0 | 15.0 | 0.00 | 0.00 | 0.00 | 54 | 1022.0 |
| 20260901084100 | 70 | 284 | 8.0 | 16.0 | 0.00 | 0.00 | 0.00 | 56 | 1021.7 |
| 20260901083558 | 70 | 319 | 8.0 | 16.0 | 0.00 | 0.00 | 0.00 | 56 | 1021.6 |
| 20260901083058 | 70 | 291 | 7.0 | 16.0 | 0.00 | 0.00 | 0.00 | 58 | 1021.7 |
| 20260901082600 | 69 | 301 | 8.0 | 16.0 | 0.00 | 0.00 | 0.00 | 57 | 1021.7 |
| 20260901082054 | 69 | 286 | 9.0 | 16.0 | 0.00 | 0.00 | 0.00 | 58 | 1021.7 |
| 20260901081544 | 69 | 252 | 9.0 | 18.0 | 0.00 | 0.00 | 0.00 | 59 | 1021.6 |
| 20260901081039 | 68 | 281 | 9.0 | 18.0 | 0.00 | 0.00 | 0.00 | 59 | 1021.6 |
| 20260901080538 | 68 | 301 | 9.0 | 20.0 | 0.00 | 0.00 | 0.00 | 60 | 1021.6 |
| 20260901080046 | 67 | 255 | 9.0 | 20.0 | 0.00 | 0.00 | 0.00 | 62 | 1021.6 |
| 20260901075538 | 67 | 244 | 8.0 | 17.0 | 0.00 | 0.00 | 0.00 | 64 | 1021.6 |
| 20260901075038 | 66 | 276 | 8.0 | 16.0 | 0.00 | 0.00 | 0.00 | 64 | 1021.6 |
| 20260901074539 | 66 | 298 | 8.0 | 17.0 | 0.00 | 0.00 | 0.00 | 65 | 1021.5 |
| 20260901074446 | 61 | 336 | 4.0 | 8.0 | 0.00 | 0.00 | 0.00 | 78 | 1021.2 |
| 20260901074440 | 60 | 300 | 3.0 | 8.0 | 0.00 | 0.00 | 0.00 | 79 | 1021.2 |
| 20260901074430 | 60 | 261 | 3.0 | 7.0 | 0.00 | 0.00 | 0.00 | 79 | 1021.2 |
| 20260901074426 | 60 | 258 | 4.0 | 9.0 | 0.00 | 0.00 | 0.00 | 79 | 1021.2 |
| 20260901074416 | 59 | 242 | 3.0 | 9.0 | 0.00 | 0.00 | 0.00 | 81 | 1021.2 |
| 20260901074409 | 58 | 275 | 2.0 | 6.0 | 0.00 | 0.00 | 0.00 | 81 | 1021.2 |
| 20260901074356 | 58 | 261 | 2.0 | 6.0 | 0.00 | 0.00 | 0.00 | 82 | 1021.1 |
| 20260901074352 | 57 | 241 | 2.0 | 6.0 | 0.00 | 0.00 | 0.00 | 84 | 1021.1 |
| 20260901074342 | 56 | 252 | 2.0 | 3.0 | 0.00 | 0.00 | 0.00 | 85 | 1021.1 |
| 20260901074336 | 56 | 251 | 2.0 | 4.0 | 0.00 | 0.00 | 0.00 | 85 | 1021.1 |
| 20260901074327 | 55 | 251 | 1.0 | 4.0 | 0.00 | 0.01 | 0.00 | 86 | 1021.0 |
| 20260901074323 | 55 | 273 | 2.0 | 5.0 | 0.00 | 0.01 | 0.00 | 87 | 1021.1 |
| 20260901074256 | 54 | 283 | 3.0 | 5.0 | 0.00 | 0.01 | 0.00 | 87 | 1021.1 |
| 20260901074251 | 54 | 259 | 3.0 | 5.0 | 0.00 | 0.01 | 0.00 | 87 | 1021.1 |
| 20260901074242 | 54 | 252 | 2.0 | 5.0 | 0.00 | 0.01 | 0.00 | 86 | 1021.0 |
| 20260901074238 | 54 | 247 | 1.0 | 4.0 | 0.00 | 0.01 | 0.00 | 85 | 1021.0 |
| 20260901074225 | 54 | 274 | 1.0 | 3.0 | 0.00 | 0.01 | 0.00 | 84 | 1021.0 |
| 20260901074211 | 54 | 298 | 0.0 | 2.0 | 0.00 | 0.01 | 0.00 | 84 | 1020.9 |
| 20260901074155 | 54 | 298 | 0.0 | 1.0 | 0.00 | 0.01 | 0.00 | 83 | 1020.9 |
| 20260901074150 | 55 | 298 | 0.0 | 1.0 | 0.00 | 0.01 | 0.00 | 83 | 1020.9 |
| 20260901074141 | 55 | 298 | 1.0 | 2.0 | 0.00 | 0.01 | 0.00 | 83 | 1020.8 |
| 20260901074136 | 55 | 298 | 1.0 | 4.0 | 0.00 | 0.01 | 0.00 | 82 | 1020.8 |
| 20260901074126 | 55 | 298 | 1.0 | 4.0 | 0.00 | 0.01 | 0.00 | 83 | 1020.8 |
| 20260901074120 | 55 | 263 | 0.0 | 3.0 | 0.00 | 0.01 | 0.00 | 84 | 1020.7 |
| 20260901074111 | 55 | 263 | 0.0 | 4.0 | 0.00 | 0.01 | 0.00 | 84 | 1020.7 |
| 20260901074102 | 55 | 273 | 2.0 | 5.0 | 0.00 | 0.01 | 0.00 | 84 | 1020.7 |
| 20260901074044 | 54 | 250 | 3.0 | 5.0 | 0.00 | 0.01 | 0.00 | 85 | 1020.7 |
| 20260901074040 | 66 | 234 | 7.0 | 17.0 | 0.00 | 0.00 | 0.00 | 65 | 1021.5 |
| 20260901074034 | 54 | 245 | 3.0 | 5.0 | 0.00 | 0.01 | 0.00 | 85 | 1020.8 |
| 20260901074022 | 54 | 217 | 3.0 | 5.0 | 0.00 | 0.01 | 0.00 | 86 | 1020.7 |
| 20260901074017 | 53 | 238 | 2.0 | 4.0 | 0.00 | 0.01 | 0.00 | 86 | 1020.7 |
| 20260901074009 | 53 | 236 | 2.0 | 5.0 | 0.00 | 0.01 | 0.00 | 87 | 1020.7 |
| 20260901073959 | 53 | 249 | 3.0 | 5.0 | 0.00 | 0.01 | 0.00 | 87 | 1020.7 |
| 20260901073950 | 53 | 258 | 3.0 | 5.0 | 0.00 | 0.01 | 0.00 | 86 | 1020.7 |
| 20260901073945 | 53 | 246 | 2.0 | 4.0 | 0.00 | 0.01 | 0.00 | 86 | 1020.7 |
| 20260901073937 | 53 | 241 | 1.0 | 4.0 | 0.00 | 0.01 | 0.00 | 85 | 1020.7 |
| 20260901073924 | 65 | 288 | 7.0 | 14.0 | 0.00 | 0.00 | 0.00 | 71 | 1021.3 |
| 20260901073920 | 64 | 254 | 7.0 | 14.0 | 0.00 | 0.00 | 0.00 | 70 | 1021.3 |
| 20260901073915 | 64 | 231 | 6.0 | 14.0 | 0.00 | 0.00 | 0.00 | 72 | 1021.3 |
| 20260901073904 | 64 | 279 | 7.0 | 14.0 | 0.00 | 0.00 | 0.00 | 72 | 1021.3 |
| 20260901073856 | 64 | 284 | 6.0 | 13.0 | 0.00 | 0.00 | 0.00 | 72 | 1021.3 |
| 20260901073848 | 63 | 263 | 5.0 | 12.0 | 0.00 | 0.00 | 0.00 | 73 | 1021.2 |
| 20260901073843 | 63 | 265 | 6.0 | 13.0 | 0.00 | 0.00 | 0.00 | 74 | 1021.2 |
| 20260901073834 | 65 | 283 | 7.0 | 17.0 | 0.00 | 0.00 | 0.00 | 69 | 1021.3 |
| 20260901073826 | 63 | 290 | 7.0 | 13.0 | 0.00 | 0.00 | 0.00 | 73 | 1021.2 |
| 20260901073820 | 63 | 240 | 8.0 | 15.0 | 0.00 | 0.00 | 0.00 | 74 | 1021.2 |
| 20260901073811 | 62 | 321 | 7.0 | 15.0 | 0.00 | 0.00 | 0.00 | 75 | 1021.2 |
| 20260901073807 | 66 | 269 | 6.0 | 16.0 | 0.00 | 0.00 | 0.00 | 68 | 1021.3 |
| 20260901073754 | 62 | 290 | 6.0 | 13.0 | 0.00 | 0.00 | 0.00 | 76 | 1021.2 |
| 20260901073740 | 62 | 300 | 6.0 | 12.0 | 0.00 | 0.00 | 0.00 | 77 | 1021.1 |
| 20260901073736 | 62 | 265 | 5.0 | 12.0 | 0.00 | 0.00 | 0.00 | 76 | 1021.2 |
| 20260901073728 | 65 | 236 | 7.0 | 17.0 | 0.00 | 0.00 | 0.00 | 69 | 1021.3 |
| 20260901031948 | 54 | 252 | 0.0 | 1.0 | 0.00 | 0.01 | 0.00 | 84 | 1020.7 |
| 20260901031931 | 53 | 252 | 0.0 | 2.0 | 0.00 | 0.01 | 0.00 | 85 | 1020.7 |
| 20260901031529 | 54 | 252 | 0.0 | 0.0 | 0.00 | 0.01 | 0.00 | 83 | 1020.7 |
| 20260901030431 | 54 | 252 | 0.0 | 2.0 | 0.00 | 0.01 | 0.00 | 82 | 1020.7 |
| 20260901025929 | 54 | 252 | 0.0 | 2.0 | 0.00 | 0.01 | 0.00 | 82 | 1020.7 |
| 20260901025426 | 55 | 252 | 0.0 | 2.0 | 0.00 | 0.01 | 0.00 | 82 | 1020.7 |
| 20260901024927 | 55 | 252 | 1.0 | 3.0 | 0.00 | 0.01 | 0.00 | 82 | 1020.6 |
| 20260901024428 | 55 | 252 | 1.0 | 3.0 | 0.00 | 0.01 | 0.00 | 82 | 1020.6 |
| 20260901023926 | 56 | 257 | 0.0 | 0.0 | 0.00 | 0.01 | 0.00 | 81 | 1020.5 |
| 20260901023427 | 56 | 257 | 0.0 | 0.0 | 0.00 | 0.01 | 0.00 | 81 | 1020.5 |
| 20260901022926 | 56 | 257 | 0.0 | 2.0 | 0.00 | 0.01 | 0.00 | 80 | 1020.5 |
| 20260901022426 | 56 | 257 | 1.0 | 3.0 | 0.00 | 0.01 | 0.00 | 80 | 1020.6 |
| 20260901021927 | 56 | 257 | 2.0 | 3.0 | 0.00 | 0.01 | 0.00 | 80 | 1020.5 |
| 20260901021426 | 56 | 254 | 1.0 | 3.0 | 0.00 | 0.01 | 0.00 | 80 | 1020.4 |
| 20260901020925 | 56 | 241 | 1.0 | 3.0 | 0.00 | 0.01 | 0.00 | 80 | 1020.3 |
| 20260901020428 | 56 | 236 | 2.0 | 4.0 | 0.00 | 0.01 | 0.00 | 80 | 1020.4 |
| 20260901015923 | 56 | 234 | 2.0 | 4.0 | 0.00 | 0.01 | 0.00 | 81 | 1020.3 |
| 20260901015412 | 56 | 242 | 2.0 | 4.0 | 0.00 | 0.01 | 0.00 | 82 | 1020.3 |
| 20260901014911 | 56 | 263 | 2.0 | 4.0 | 0.00 | 0.01 | 0.00 | 82 | 1020.3 |
| 20260901014410 | 56 | 253 | 2.0 | 4.0 | 0.00 | 0.01 | 0.00 | 83 | 1020.4 |
| 20260901013912 | 56 | 243 | 2.0 | 4.0 | 0.00 | 0.01 | 0.00 | 83 | 1020.3 |
| 20260901013411 | 56 | 261 | 2.0 | 4.0 | 0.00 | 0.01 | 0.00 | 84 | 1020.4 |
| 20260901012912 | 56 | 252 | 2.0 | 3.0 | 0.00 | 0.01 | 0.00 | 85 | 1020.4 |
| 20260901012410 | 56 | 251 | 2.0 | 4.0 | 0.00 | 0.01 | 0.00 | 85 | 1020.4 |
| 20260901011913 | 55 | 251 | 2.0 | 4.0 | 0.00 | 0.01 | 0.00 | 86 | 1020.3 |
| 20260901011409 | 55 | 251 | 2.0 | 4.0 | 0.00 | 0.01 | 0.00 | 86 | 1020.3 |
| 20260901010908 | 55 | 238 | 1.0 | 3.0 | 0.00 | 0.01 | 0.00 | 86 | 1020.3 |
| 20260901010405 | 55 | 257 | 0.0 | 3.0 | 0.00 | 0.01 | 0.00 | 85 | 1020.2 |
| 20260901005905 | 55 | 260 | 0.0 | 0.0 | 0.00 | 0.01 | 0.00 | 86 | 1020.2 |
| 20260901005402 | 55 | 260 | 0.0 | 0.0 | 0.00 | 0.01 | 0.00 | 86 | 1020.2 |
| 20260901004903 | 55 | 260 | 0.0 | 1.0 | 0.00 | 0.01 | 0.00 | 86 | 1020.2 |
| 20260901004402 | 55 | 260 | 0.0 | 2.0 | 0.00 | 0.01 | 0.00 | 86 | 1020.2 |
| 20260901003904 | 55 | 260 | 0.0 | 2.0 | 0.00 | 0.01 | 0.00 | 86 | 1019.9 |
| 20260901003401 | 56 | 259 | 0.0 | 2.0 | 0.00 | 0.01 | 0.00 | 87 | 1019.9 |
| 20260901002900 | 56 | 259 | 1.0 | 3.0 | 0.00 | 0.01 | 0.00 | 87 | 1019.8 |
| 20260901002359 | 55 | 259 | 1.0 | 3.0 | 0.00 | 0.01 | 0.00 | 87 | 1019.9 |
| 20260901001855 | 56 | 251 | 0.0 | 3.0 | 0.00 | 0.01 | 0.00 | 87 | 1020.0 |
| 20260901001356 | 56 | 251 | 0.0 | 0.0 | 0.00 | 0.01 | 0.00 | 87 | 1019.9 |
| 20260901000856 | 55 | 251 | 0.0 | 0.0 | 0.00 | 0.01 | 0.00 | 87 | 1019.8 |
| 20260901000358 | 56 | 251 | 0.0 | 0.0 | 0.00 | 0.01 | 0.00 | 87 | 1019.7 |
| 20260831235858 | 56 | 251 | 0.0 | 0.0 | 0.00 | 0.01 | 0.00 | 87 | 1019.7 |
| 20260831235357 | 56 | 251 | 0.0 | 0.0 | 0.00 | 0.01 | 0.00 | 88 | 1019.7 |
| 20260831234851 | 56 | 251 | 0.0 | 2.0 | 0.00 | 0.01 | 0.00 | 88 | 1019.6 |
| 20260831234350 | 56 | 251 | 0.0 | 2.0 | 0.00 | 0.01 | 0.00 | 87 | 1019.7 |
| 20260831233850 | 56 | 251 | 0.0 | 2.0 | 0.00 | 0.01 | 0.00 | 86 | 1019.7 |
| 20260831233351 | 56 | 239 | 0.0 | 0.0 | 0.00 | 0.01 | 0.00 | 85 | 1019.7 |
| 20260831232849 | 56 | 239 | 0.0 | 0.0 | 0.00 | 0.01 | 0.00 | 84 | 1019.7 |
| 20260831232350 | 56 | 239 | 0.0 | 0.0 | 0.00 | 0.01 | 0.00 | 83 | 1019.7 |
| 20260831231848 | 56 | 239 | 0.0 | 0.0 | 0.00 | 0.01 | 0.00 | 83 | 1019.7 |
| 20260831231346 | 56 | 239 | 0.0 | 0.0 | 0.00 | 0.01 | 0.00 | 82 | 1019.6 |
| 20260831230844 | 56 | 239 | 0.0 | 0.0 | 0.00 | 0.01 | 0.00 | 82 | 1019.6 |
| 20260831230345 | 56 | 239 | 0.0 | 0.0 | 0.00 | 0.01 | 0.00 | 82 | 1019.5 |
| 20260831225842 | 57 | 239 | 0.0 | 0.0 | 0.00 | 0.01 | 0.00 | 81 | 1019.6 |
| 20260831225338 | 57 | 239 | 0.0 | 0.0 | 0.00 | 0.01 | 0.00 | 81 | 1019.7 |
| 20260831224838 | 57 | 239 | 0.0 | 0.0 | 0.00 | 0.01 | 0.00 | 80 | 1019.8 |
| 20260831224336 | 57 | 239 | 0.0 | 0.0 | 0.00 | 0.01 | 0.00 | 80 | 1019.7 |
| 20260831223836 | 58 | 239 | 0.0 | 0.0 | 0.00 | 0.01 | 0.00 | 81 | 1019.8 |
| 20260831223336 | 58 | 239 | 0.0 | 0.0 | 0.00 | 0.01 | 0.00 | 81 | 1019.7 |
| 20260831222834 | 58 | 239 | 0.0 | 0.0 | 0.00 | 0.01 | 0.00 | 81 | 1019.8 |
| 20260831222332 | 58 | 239 | 0.0 | 0.0 | 0.00 | 0.01 | 0.00 | 81 | 1019.8 |
| 20260831221833 | 58 | 239 | 0.0 | 0.0 | 0.00 | 0.01 | 0.00 | 80 | 1019.8 |
| 20260831221326 | 59 | 239 | 0.0 | 0.0 | 0.00 | 0.01 | 0.00 | 80 | 1019.8 |
| 20260831220825 | 59 | 239 | 0.0 | 0.0 | 0.00 | 0.01 | 0.00 | 81 | 1019.8 |
| 20260831220314 | 59 | 239 | 0.0 | 0.0 | 0.00 | 0.01 | 0.00 | 78 | 1019.9 |
| 20260831215809 | 59 | 239 | 0.0 | 0.0 | 0.00 | 0.01 | 0.01 | 78 | 1019.7 |
| 20260831215309 | 60 | 239 | 0.0 | 0.0 | 0.00 | 0.01 | 0.01 | 79 | 1019.7 |
| 20260831214807 | 60 | 239 | 0.0 | 0.0 | 0.00 | 0.01 | 0.01 | 80 | 1019.7 |
| 20260831214307 | 60 | 239 | 0.0 | 0.0 | 0.00 | 0.01 | 0.01 | 81 | 1019.6 |
| 20260831213806 | 60 | 239 | 0.0 | 0.0 | 0.00 | 0.01 | 0.01 | 80 | 1019.5 |
| 20260831213305 | 60 | 239 | 0.0 | 0.0 | 0.00 | 0.01 | 0.01 | 78 | 1019.5 |
| 20260831212804 | 60 | 239 | 0.0 | 0.0 | 0.00 | 0.01 | 0.01 | 76 | 1019.4 |
| 20260831212306 | 60 | 239 | 0.0 | 0.0 | 0.00 | 0.01 | 0.01 | 76 | 1019.4 |
| 20260831211802 | 60 | 239 | 0.0 | 0.0 | 0.00 | 0.01 | 0.01 | 76 | 1019.3 |